| time (UTC) | temp C | wind direction | speed KPH | gust KPH | rain 1hr cm | rain 24hr cm | rain mn cm | humidity % | barometer mb |
| 20260503071547 | 15 | 330 | 0.0 | 1.6 | 0.00 | 0.00 | 0.00 | 60 | 1014.2 |
| 20260503054537 | 13 | 332 | 0.0 | 0.0 | 0.00 | 0.00 | 0.00 | 61 | 1014.4 |
| 20260503053026 | 13 | 332 | 0.0 | 0.0 | 0.00 | 0.00 | 0.00 | 60 | 1014.4 |
| 20260503051522 | 13 | 332 | 0.0 | 0.0 | 0.00 | 0.00 | 0.00 | 61 | 1014.3 |
| 20260503050018 | 12 | 332 | 0.0 | 0.0 | 0.00 | 0.00 | 0.00 | 61 | 1014.3 |
| 20260503044517 | 13 | 332 | 0.0 | 3.2 | 0.00 | 0.00 | 0.00 | 60 | 1014.3 |
| 20260503043015 | 12 | 331 | 0.0 | 3.2 | 0.00 | 0.00 | 0.00 | 60 | 1014.3 |
| 20260503041516 | 12 | 331 | 0.0 | 1.6 | 0.00 | 0.00 | 0.00 | 59 | 1014.2 |
| 20260503040011 | 13 | 331 | 0.0 | 1.6 | 0.00 | 0.00 | 0.00 | 55 | 1014.1 |
| 20260503034511 | 13 | 331 | 0.0 | 0.0 | 0.00 | 0.00 | 0.00 | 56 | 1014.4 |
| 20260503033016 | 13 | 331 | 0.0 | 1.6 | 0.00 | 0.00 | 0.00 | 55 | 1014.1 |
| 20260503031509 | 13 | 331 | 0.0 | 1.6 | 0.00 | 0.00 | 0.00 | 57 | 1014.2 |
| 20260503030008 | 13 | 331 | 0.0 | 3.2 | 0.00 | 0.00 | 0.00 | 59 | 1014.2 |
| 20260503024507 | 13 | 331 | 0.0 | 3.2 | 0.00 | 0.00 | 0.00 | 58 | 1014.3 |
| 20260503023005 | 13 | 328 | 0.0 | 0.0 | 0.00 | 0.00 | 0.00 | 59 | 1014.4 |
| 20260503021503 | 13 | 328 | 0.0 | 0.0 | 0.00 | 0.00 | 0.00 | 62 | 1014.6 |
| 20260503020002 | 14 | 328 | 0.0 | 0.0 | 0.00 | 0.00 | 0.00 | 59 | 1014.7 |
| 20260503014624 | 14 | 327 | 0.0 | 0.0 | 0.00 | 0.00 | 0.00 | 59 | 1014.9 |
| 20260503013057 | 15 | 327 | 0.0 | 0.0 | 0.00 | 0.00 | 0.00 | 58 | 1015.0 |
| 20260503011621 | 15 | 327 | 0.0 | 0.0 | 0.00 | 0.00 | 0.00 | 56 | 1015.0 |
| 20260503010058 | 14 | 327 | 0.0 | 0.0 | 0.00 | 0.00 | 0.00 | 57 | 1015.0 |
| 20260503004601 | 14 | 327 | 0.0 | 0.0 | 0.00 | 0.00 | 0.00 | 58 | 1015.0 |
| 20260503003057 | 15 | 327 | 0.0 | 0.0 | 0.00 | 0.00 | 0.00 | 58 | 1015.2 |
| 20260503001555 | 14 | 327 | 0.0 | 0.0 | 0.00 | 0.00 | 0.00 | 59 | 1015.2 |
| 20260503000047 | 15 | 330 | 0.0 | 0.0 | 0.00 | 0.00 | 0.00 | 56 | 1015.3 |
| 20260502234546 | 16 | 330 | 0.0 | 0.0 | 0.00 | 0.00 | 0.00 | 54 | 1015.4 |
| 20260502233046 | 16 | 329 | 0.0 | 0.0 | 0.00 | 0.00 | 0.00 | 52 | 1015.5 |
| 20260502231542 | 16 | 355 | 0.0 | 0.0 | 0.00 | 0.00 | 0.00 | 53 | 1015.5 |
| 20260502230042 | 17 | 360 | 0.0 | 6.4 | 0.00 | 0.00 | 0.00 | 51 | 1015.6 |
| 20260502224539 | 16 | 40 | 0.0 | 1.6 | 0.00 | 0.00 | 0.00 | 56 | 1015.6 |
| 20260502223040 | 16 | 40 | 0.0 | 1.6 | 0.00 | 0.00 | 0.00 | 56 | 1015.5 |
| 20260502221536 | 16 | 43 | 0.0 | 1.6 | 0.00 | 0.00 | 0.00 | 59 | 1015.5 |
| 20260502220034 | 16 | 45 | 0.0 | 0.0 | 0.00 | 0.00 | 0.00 | 58 | 1015.4 |
| 20260502214534 | 17 | 62 | 0.0 | 0.0 | 0.00 | 0.00 | 0.00 | 56 | 1015.2 |
| 20260502213033 | 16 | 63 | 0.0 | 1.6 | 0.00 | 0.00 | 0.00 | 58 | 1015.0 |
| 20260502211541 | 16 | 68 | 0.0 | 1.6 | 0.00 | 0.00 | 0.00 | 57 | 1014.9 |
| 20260502210038 | 17 | 74 | 0.0 | 1.6 | 0.00 | 0.00 | 0.00 | 54 | 1014.9 |
| 20260502204532 | 17 | 75 | 0.0 | 3.2 | 0.00 | 0.00 | 0.00 | 53 | 1014.7 |
| 20260502203032 | 17 | 90 | 0.0 | 1.6 | 0.00 | 0.00 | 0.00 | 55 | 1014.6 |
| 20260502201534 | 17 | 337 | 0.0 | 3.2 | 0.00 | 0.00 | 0.00 | 54 | 1014.4 |
| 20260502200031 | 18 | 336 | 0.0 | 1.6 | 0.00 | 0.00 | 0.00 | 53 | 1014.4 |
| 20260502194530 | 18 | 336 | 0.0 | 0.0 | 0.00 | 0.00 | 0.00 | 52 | 1014.3 |
| 20260502193030 | 19 | 336 | 0.0 | 1.6 | 0.00 | 0.00 | 0.00 | 51 | 1014.2 |
| 20260502191530 | 19 | 336 | 0.0 | 0.0 | 0.00 | 0.00 | 0.00 | 50 | 1013.7 |
| 20260502190037 | 19 | 336 | 0.0 | 3.2 | 0.00 | 0.00 | 0.00 | 52 | 1013.6 |
| 20260502184545 | 20 | 132 | 0.0 | 3.2 | 0.00 | 0.00 | 0.00 | 47 | 1013.5 |
| 20260502183046 | 20 | 296 | 0.0 | 3.2 | 0.00 | 0.00 | 0.00 | 47 | 1013.4 |
| 20260502181537 | 21 | 264 | 0.0 | 4.8 | 0.00 | 0.00 | 0.00 | 47 | 1013.4 |
| 20260502163035 | 22 | 205 | 0.0 | 6.4 | 0.00 | 0.00 | 0.00 | 43 | 1013.0 |
| 20260502161525 | 23 | 182 | 1.6 | 9.7 | 0.00 | 0.00 | 0.00 | 41 | 1013.1 |
| 20260502151519 | 24 | 177 | 1.6 | 11.3 | 0.00 | 0.00 | 0.00 | 38 | 1013.2 |
| 20260502123012 | 26 | 213 | 1.6 | 14.5 | 0.00 | 0.00 | 0.00 | 31 | 1015.3 |
| 20260502121501 | 25 | 286 | 0.0 | 12.9 | 0.00 | 0.00 | 0.00 | 28 | 1015.5 |
| 20260502114608 | 25 | 173 | 1.6 | 9.7 | 0.00 | 0.00 | 0.00 | 30 | 1015.9 |
| 20260502113055 | 25 | 187 | 1.6 | 8.0 | 0.00 | 0.00 | 0.00 | 34 | 1016.2 |
| 20260502111554 | 24 | 274 | 0.0 | 9.7 | 0.00 | 0.00 | 0.00 | 33 | 1016.5 |
| 20260502110048 | 23 | 231 | 3.2 | 8.0 | 0.00 | 0.00 | 0.00 | 36 | 1016.8 |
| 20260502104550 | 23 | 186 | 0.0 | 9.7 | 0.00 | 0.00 | 0.00 | 36 | 1017.0 |
| 20260502103041 | 23 | 204 | 1.6 | 8.0 | 0.00 | 0.00 | 0.00 | 38 | 1017.4 |
| 20260502101607 | 21 | 196 | 0.0 | 4.8 | 0.00 | 0.00 | 0.00 | 40 | 1017.8 |
| 20260502091524 | 20 | 176 | 0.0 | 3.2 | 0.00 | 0.00 | 0.00 | 42 | 1019.0 |